EHI
4 5 6 6 4 2 1 0 0 0 1 2 1 1 0 0 0 0 0 0 1 2 3 4 4 3 3 3 3 3 3 3 2 1 1 2 2 2 2 1 0 1 2
3 5 7 6 5 4 3 2 1 1 3 4 3 2 1 0 0 0 0 0 0 1 3 4 4 4 3 3 3 3 3 3 3 2 2 3 3 2 1 0 0 1 2
4 6 8 8 8 8 7 5 3 3 5 6 5 3 2 0 0 0 0 0 0 1 2 4 4 4 4 3 3 4 4 3 3 3 3 3 3 3 2 1 0 0 1
4 6 7 8 9 9 9 8 6 5 5 6 5 4 2 0 0 0 0 0 0 0 1 2 3 4 4 4 5 5 5 4 4 3 3 3 3 3 3 2 1 0 0
5 5 6 7 8 8 9 9 7 6 6 7 7 6 4 1 0 0 0 0 1 1 1 1 3 5 6 6 7 8 7 7 6 5 5 4 4 4 4 4 3 1 0
5 4 5 5 6 7 8 8 8 8 8 9 8 7 5 2 0 0 1 2 3 3 3 2 4 6 6 7 8 9 10 10 9 8 7 6 6 6 6 6 5 3 1
4 3 4 5 6 8 9 9 9 10 10 10 9 8 6 3 1 1 2 4 5 5 4 4 5 6 6 7 8 10 11 11 10 10 9 8 7 8 8 7 6 4 3
3 3 3 4 7 9 11 12 12 13 12 11 11 10 9 6 3 2 3 4 4 3 3 3 4 5 6 7 8 9 10 11 11 10 10 9 9 9 9 8 6 4 3
3 3 3 4 6 9 12 13 15 15 15 13 12 12 12 10 6 4 3 2 2 1 1 1 1 2 4 7 9 9 9 10 11 11 10 10 9 9 8 7 6 5 4
3 3 3 3 5 8 10 13 16 17 17 15 14 13 13 11 8 6 3 2 2 1 0 0 0 0 2 4 6 7 8 9 10 10 9 8 8 7 6 6 5 5 5
4 3 2 2 5 7 10 12 15 17 16 16 15 14 14 12 10 9 7 4 3 2 1 0 0 1 1 2 3 5 6 7 8 7 6 5 5 4 4 4 4 4 4
4 3 3 4 7 9 10 11 14 16 17 16 16 17 15 13 11 10 9 7 5 3 1 1 2 2 3 2 3 5 6 6 5 4 3 3 3 3 2 3 3 3 3
4 4 5 7 8 10 11 12 13 16 18 18 18 18 16 13 11 9 9 8 6 4 3 4 4 4 4 3 4 5 5 4 2 1 1 1 2 1 1 1 3 3 2
7 7 7 7 7 9 11 12 12 14 14 15 17 18 16 14 12 10 8 7 6 5 5 6 6 5 4 3 4 4 3 2 1 0 0 0 0 0 0 1 2 2 1
9 9 8 7 6 7 8 9 9 10 11 13 15 17 17 16 13 10 8 6 5 5 6 6 6 6 4 3 3 3 1 1 1 0 0 0 0 0 0 0 1 1 0
8 9 9 8 7 7 7 7 6 9 12 15 17 18 18 16 11 8 7 6 6 6 6 6 6 5 3 2 2 2 1 0 0 0 0 0 0 0 0 0 0 0 0
9 9 8 8 8 8 6 5 6 10 15 17 17 17 16 13 10 9 9 9 9 8 7 6 5 4 3 1 0 0 0 0 0 0 0 0 0 0 0 0 0 0 0
12 10 7 6 7 8 7 6 9 13 16 17 15 13 11 10 11 12 13 13 12 10 7 6 5 5 3 1 0 0 0 0 0 0 0 0 0 0 0 0 0 0 0
14 12 9 6 7 8 8 8 10 13 15 15 12 9 8 9 11 14 15 15 12 9 7 6 5 4 3 1 0 0 0 0 0 0 0 0 0 0 0 0 0 0 0
12 11 12 10 8 7 9 9 9 10 11 11 10 9 9 9 12 13 15 15 12 9 7 6 5 4 2 1 0 0 1 1 0 0 0 0 0 0 0 0 0 0 0
8 9 11 10 7 6 7 9 8 7 7 8 9 10 11 11 12 14 15 15 13 9 7 6 5 4 3 1 0 1 2 2 1 0 0 0 0 0 0 0 0 0 0
6 7 7 7 6 4 5 6 7 6 6 7 8 10 12 13 14 14 15 15 14 10 9 8 7 6 4 1 0 1 2 2 1 0 0 0 0 0 0 0 0 0 0
6 5 5 6 6 5 4 4 5 6 7 7 7 9 12 13 15 15 15 15 15 12 11 11 10 9 6 3 1 0 1 1 0 0 0 0 0 0 0 0 0 0 0
6 5 5 7 7 6 5 4 4 5 7 7 7 7 9 12 14 14 14 15 14 13 13 13 12 11 9 6 3 1 0 0 0 0 0 0 0 0 0 0 0 0 0
6 5 4 5 6 5 5 5 3 4 5 6 6 6 8 10 12 13 13 13 13 11 11 12 13 12 10 7 4 2 1 0 0 0 0 0 0 0 0 0 0 0 0
6 5 4 4 4 3 4 4 2 3 4 6 6 6 8 10 12 11 11 11 11 9 8 10 12 12 9 6 4 2 1 1 0 0 0 0 0 0 0 0 0 0 0
Wind_Speed
6 5 6 6 5 4 4 4 4 4 3 3 2 2 1 1 1 1 2 2 3 3 3 3 3 4 4 4 4 4 4 2 3 3 2 2 2 2 1 0 0 0 0
4 5 6 6 6 6 6 5 5 4 4 3 3 2 2 1 1 1 1 2 2 3 3 3 3 3 4 4 4 4 3 2 2 2 2 1 2 2 1 1 0 0 0
8 8 7 7 6 7 7 7 6 5 4 4 3 2 2 2 1 1 0 1 2 3 3 3 3 3 4 4 4 4 4 3 1 1 3 3 2 0 1 1 1 0 0
7 7 8 7 8 8 7 7 6 5 4 4 4 4 3 2 2 1 1 1 1 2 3 3 3 3 3 4 4 3 3 3 2 1 1 2 3 2 0 1 1 0 0
8 9 9 9 8 7 7 6 6 5 4 4 5 4 3 2 1 1 1 1 1 1 2 3 3 3 3 4 4 3 3 3 3 3 2 2 1 2 2 1 1 1 1
8 8 7 6 6 6 6 6 6 5 5 5 5 5 5 4 3 2 1 1 0 0 1 2 3 3 3 4 4 4 4 4 3 3 3 3 3 3 3 2 1 1 1
7 8 8 7 7 7 7 7 7 6 5 5 5 5 5 5 5 4 3 2 1 1 2 2 2 3 3 3 3 3 4 4 4 4 3 2 2 2 3 3 2 1 1
8 8 9 9 8 8 8 8 7 6 6 6 5 5 5 4 3 3 3 3 2 2 2 2 2 2 3 3 3 3 3 3 4 4 3 2 2 3 3 3 3 1 1
8 8 8 9 8 8 9 9 8 7 6 6 5 4 4 4 4 3 3 2 1 1 1 2 2 2 2 3 3 2 3 3 3 3 3 2 2 2 2 3 3 3 2
6 7 7 8 8 8 8 7 8 8 6 6 6 5 4 5 4 3 3 3 2 1 1 1 2 1 2 2 2 2 2 3 2 2 3 2 1 2 2 2 2 2 3
6 6 6 7 7 6 6 7 7 6 6 6 5 4 4 4 4 4 4 3 3 3 2 2 2 2 2 2 2 2 2 3 2 2 3 2 2 1 2 2 2 2 2
6 5 6 6 6 6 6 7 7 7 7 6 5 5 4 4 4 4 3 3 3 3 3 3 2 2 2 2 3 3 2 3 3 2 3 2 2 2 1 1 2 2 2
4 4 4 6 6 7 7 7 7 7 6 6 6 5 5 5 4 3 3 3 3 2 2 2 2 2 2 2 2 3 2 2 2 3 3 3 3 2 1 2 2 1 1
4 4 4 5 6 6 7 7 7 6 6 6 6 6 5 5 4 3 3 3 3 3 3 2 2 2 2 3 2 2 2 2 1 2 3 3 3 3 3 2 2 2 1
4 5 5 5 5 5 5 6 6 6 6 6 6 6 5 4 4 3 3 3 3 3 3 3 3 2 2 3 3 3 2 2 2 1 2 2 3 4 3 2 3 3 2
5 5 5 5 6 5 5 5 6 6 7 7 6 5 5 4 4 4 3 3 3 2 3 3 3 3 2 3 5 4 2 2 2 2 1 1 2 2 2 3 3 4 3
5 6 6 7 6 7 6 6 6 6 7 7 6 5 5 5 4 4 4 4 3 3 3 3 3 3 3 4 5 5 3 3 3 3 2 2 1 2 1 1 2 2 2
4 4 5 5 5 5 5 5 5 6 6 6 5 5 6 5 4 5 5 4 4 4 3 3 3 3 3 4 4 4 3 2 2 2 3 2 2 2 2 2 1 1 1
2 3 3 3 3 4 5 6 5 5 6 6 6 6 6 6 6 6 5 4 4 4 3 3 3 3 3 4 5 4 2 2 2 2 2 3 3 3 4 3 2 1 2
1 1 2 2 2 3 5 6 6 5 6 6 6 6 6 6 7 6 5 3 3 4 4 3 3 3 3 4 5 5 3 2 2 1 2 2 3 3 4 3 3 3 3
2 3 4 3 2 2 5 5 4 5 5 4 4 4 6 6 5 4 4 3 3 3 3 3 2 3 3 4 5 5 3 4 3 2 2 2 3 3 4 4 4 5 3
4 4 4 3 2 2 4 4 4 4 2 3 3 4 4 4 4 4 4 4 4 4 4 3 2 2 3 4 5 6 6 5 4 3 3 3 4 4 4 3 3 4 3
3 3 4 4 3 2 2 3 2 1 2 3 3 3 3 3 4 5 5 4 4 4 3 4 4 3 3 3 5 6 6 6 4 3 4 4 4 4 3 3 4 3 2
2 2 4 4 3 2 2 1 1 2 3 3 3 2 3 3 2 3 4 4 4 4 4 4 4 3 3 3 3 3 4 4 3 2 2 3 3 2 2 2 2 2 3
2 3 3 3 2 2 2 2 2 2 2 2 2 2 3 3 3 2 3 4 4 5 6 5 5 4 5 5 5 4 4 4 3 2 1 1 1 1 2 2 2 2 2
2 3 3 3 2 3 3 3 2 1 2 1 2 2 2 2 2 2 1 1 2 3 5 4 5 4 5 5 6 7 6 5 6 4 2 3 3 4 4 3 3 3 3
Wind_Direction
206 186 183 179 167 167 175 172 168 168 146 136 141 144 150 150 123 139 151 152 150 143 143 149 150 147 149 153 146 134 123 120 122 102 72 42 53 65 53 56 83 83 216
197 192 185 181 182 180 184 177 179 173 166 159 153 149 146 148 153 139 135 153 152 154 153 156 159 154 148 148 149 146 137 152 149 131 117 54 20 24 29 39 130 281 263
200 198 194 194 191 190 187 185 186 179 174 159 127 110 87 66 65 81 153 163 154 155 150 156 159 156 156 163 168 168 163 169 169 153 150 156 194 326 5 23 21 12 292
200 198 195 194 198 198 186 182 184 179 172 159 151 151 151 166 188 163 160 130 134 144 147 158 164 159 159 166 180 178 168 157 177 171 173 167 159 164 201 341 7 4 297
197 197 198 197 196 189 181 179 177 179 174 166 164 160 168 179 146 107 110 94 114 136 153 165 164 166 170 177 182 173 167 172 183 177 164 153 153 164 170 230 300 340 311
195 198 197 190 190 179 173 168 170 180 174 169 170 172 177 173 161 166 166 166 135 144 172 172 173 178 180 183 190 182 178 191 190 185 179 172 171 178 174 191 229 273 300
193 192 189 186 186 181 179 174 174 183 178 173 179 184 184 179 183 185 184 184 191 215 214 192 187 189 190 187 185 181 189 194 193 196 196 193 194 168 160 160 181 226 285
194 195 193 189 189 186 181 178 181 187 181 181 188 187 183 178 182 184 183 189 201 223 212 198 196 200 192 186 177 184 197 187 195 201 191 187 193 178 172 168 165 176 263
197 199 196 190 188 188 188 187 186 189 188 187 185 184 182 176 178 181 177 182 194 209 194 194 192 195 186 180 173 183 195 181 190 190 188 188 190 178 180 174 175 171 202
197 198 194 192 190 191 190 185 185 191 189 186 188 189 183 181 178 174 183 184 187 188 175 178 180 185 181 176 170 171 175 168 179 174 167 170 171 168 173 177 188 188 189
206 203 195 191 184 178 180 184 187 185 185 186 187 184 178 174 172 182 195 188 186 183 183 187 177 173 170 166 162 170 166 162 161 158 158 167 162 167 172 175 178 184 186
203 203 193 179 174 178 181 188 189 189 191 185 181 182 178 172 178 187 191 182 183 185 182 172 162 167 163 163 165 172 167 168 169 173 161 167 162 160 168 169 179 193 198
196 191 186 182 183 184 185 190 191 191 184 175 175 176 178 181 187 184 177 168 168 170 161 152 159 168 166 163 163 162 169 174 178 177 176 181 167 174 178 180 185 198 189
189 187 191 195 192 188 188 189 192 186 175 170 175 182 188 188 185 175 167 169 168 168 164 158 169 178 170 167 160 154 156 160 177 181 180 183 182 188 185 189 191 182 169
194 193 192 196 196 192 191 188 186 179 174 172 180 189 185 173 163 165 170 172 175 173 161 159 168 171 173 177 162 159 163 165 172 181 190 198 193 191 198 197 189 178 180
206 196 188 190 194 193 190 187 185 178 169 174 184 178 167 164 166 172 171 170 174 165 162 173 175 178 196 182 177 169 168 179 190 201 215 214 199 197 199 189 187 186 189
207 203 195 195 195 190 185 185 183 170 168 176 179 169 167 173 179 179 176 182 180 170 172 180 174 187 202 191 188 182 178 191 208 212 212 211 198 180 173 161 159 189 199
202 210 207 200 195 181 170 168 163 164 170 172 176 175 171 175 180 182 186 189 185 182 185 192 189 190 209 195 186 178 172 189 210 215 214 209 224 207 173 168 182 260 255
205 207 207 188 172 166 159 146 148 158 167 177 182 184 180 179 183 194 196 192 187 188 187 188 189 193 211 193 182 165 157 177 220 235 225 217 223 212 175 170 197 256 282
110 111 95 99 130 153 145 145 158 168 183 189 189 185 181 185 190 197 195 188 186 191 186 185 198 200 205 200 189 175 176 193 221 249 255 235 224 217 188 186 195 224 255
96 100 100 97 104 130 138 148 163 190 200 190 178 180 186 191 190 187 187 180 182 179 181 190 202 209 213 208 201 191 191 202 212 230 246 252 229 219 210 203 212 228 229
89 101 103 90 77 108 138 156 188 210 188 165 167 185 186 188 186 176 184 182 179 183 191 198 212 223 224 217 216 209 207 199 201 223 235 241 227 222 221 217 222 219 209
90 96 105 90 69 85 127 160 210 179 145 148 168 176 172 184 184 180 185 185 185 190 204 208 220 228 223 228 224 217 217 208 206 226 229 233 229 224 229 230 219 204 198
77 83 87 84 69 58 74 84 78 125 142 161 176 170 165 180 181 183 188 188 191 195 206 216 224 229 225 225 219 215 214 213 217 232 240 231 227 228 243 251 235 222 215
77 91 97 95 77 60 56 45 61 109 139 165 173 167 169 180 187 187 194 194 200 201 201 213 214 213 227 231 212 197 206 208 208 185 185 196 221 240 250 250 245 232 223
89 86 83 79 65 60 48 29 30 103 137 155 175 176 178 183 185 182 193 214 206 214 214 210 202 214 226 213 203 208 208 200 181 168 204 219 224 230 236 239 245 243 240